Regional Weather Roundup
Issued by NWS Lake Charles, LA

Current Version | Previous Version | Text Only | Print | Product List | Glossary On
Versions: 1 2 3 4 5 6 7 8 9 10 11 12 13 14 15 16 17 18 19 20 21 22 23 24 25 26 27 28
000
ASUS44 KLCH 290710
RWRLCH
REGIONAL WEATHER ROUNDUP
NATIONAL WEATHER SERVICE LAKE CHARLES LA
200 AM CDT THU SEP 29 2016

Note: "fair" indicates few or no clouds below 12,000 feet with no
significant weather and/or obstructions to visibility.


ACROSS SOUTHEAST TEXAS

CITY           SKY/WX    TMP DP  RH WIND       PRES   REMARKS
BEAUMONT       CLEAR     65  62  90 CALM      30.03S
BEAUMONT CITY  FAIR      65  63  91 CALM      30.04S
ORANGE         SUNNY     63  63 100 CALM      30.05S
JASPER         CLEAR     61  60  98 CALM      30.06F
$$

ACROSS CENTRAL LOUISIANA

CITY           SKY/WX    TMP DP  RH WIND       PRES   REMARKS
LEESVILLE      CLEAR     63  62  94 S2        30.02F
FULLERTON      NOT AVBL
ALEXANDRIA INT CLEAR     64  61  90 NW3       30.00F
ESLER FIELD    FOG       61  61 100 CALM      30.01F VSB 3/4
DERIDDER       FAIR      62  61  96 CALM      30.05F
OAKDALE        SUNNY     60  59  97 CALM      30.02F FOG
OPELOUSAS        N/A     66  66  99 CALM      30.01F VSB 3/4
$$

ACROSS SOUTHWEST AND SOUTH CENTRAL LOUISIANA

CITY           SKY/WX    TMP DP  RH WIND       PRES   REMARKS
SULPHUR        SUNNY     68  66  93 CALM      30.04S
LAKE CHARLES   CLEAR     67  66  97 CALM      30.02F
CHENNAULT INT    N/A     67  65  94 CALM      30.03S
CAMERON PHI    SUNNY     75  70  83 NW3       30.02S
DEQUINCY       FAIR      62  61  97 CALM      30.04S
JENNINGS       FAIR      67  66  96 CALM      30.03S
LAFAYETTE      CLEAR     73  67  81 W5        30.02S
NEW IBERIA     CLEAR     71  66  84 W5        30.02S
ABBEVILLE      FAIR      68  68 100 NW3       30.02S
PATTERSON      PTCLDY    72  70  93 CALM      30.01F
SALT POINT     NOT AVBL
$$

SELECTED SITES ACROSS THE REGION

CITY           SKY/WX    TMP DP  RH WIND       PRES   REMARKS
HOUSTON BUSH   CLEAR     67  64  90 CALM      30.05S
HOUSTON HOBBY  CLEAR     73  69  87 CALM      30.05S
GALVESTON      CLEAR     78  69  73 N5        30.04F
COLLEGE STAT   CLEAR     66  61  84 CALM      30.07S
CONROE         CLEAR     59  58  96 CALM      30.06S
HUNTSVILLE     CLEAR     63  57  81 CALM      30.06F
LUFKIN         CLEAR     59  58  96 CALM      30.04F
SHREVEPORT     CLEAR     70  59  68 N13       30.05R
MONROE         CLEAR     69  59  70 N12       30.03R
NATCHEZ MS     CLEAR     63  59  88 CALM      30.01S
BATON ROUGE    CLEAR     72  68  87 NW3       30.00F
N.O. INTL ARPT CLEAR     77  70  79 W5        30.00R
SLIDELL        PTCLDY    70  67  90 CALM      29.99S
$$

MARINE REPORTS

STATION/POSITION TIME  SKY/WX   TEMP    WIND        PRES    VSBY
                                AIR SEA DIR/SP/G
                 (UTC)          (F)     (DEG/KT/KT) (MB)    (MI)
BUOY 30 S HIGH I 0650            82 85  350/  8/  8 1017.1F
WVE H/P(F/S)=  1/ 5

SEA RIM ST PARK  0700            72     320/  3/  4 1017.5F
PORT ARTHUR      0600               85  350/  5/  6 1017.1F
SABINE PASS N    0600            78 85  360/  3/  4 1018.4F
TEXAS POINT      NOT AVBL
CALCASIEU PASS   0600            77 83  340/  5/  6   N/A
LK CHARLES BEACH 0600            74 84              1017.2F
MARSH ISLAND     0600            81                   N/A
FRESH WATER LOCK 0606            75 85  280/  5/  5 1017.2F
AMERADA PASS     0600            79 84  290/  5/  7 1016.0F
$$




USA.gov is the U.S. government's official web portal to all federal, state and local government web resources and services.